User: anonymous   Login
Location: *
(31.2983°S, 151.4094°E)
Time: 23:50:19
(UTC+00:00)
Language:

SL-16 R/B - Orbit

View from above orbital plane
View from above orbital plane
View from above satellite
View from above satellite

Ground track
Ground track

The orbit data is extracted from the following two-line orbital elements,

1 28353U 04021B   19286.93120656 +.00000002 +00000-0 +25980-4 0  9996
2 28353 070.9984 098.4505 0005975 328.4290 031.6473 14.14228807792149
Epoch (UTC): 13 October 2019 22:20:56
Eccentricity: 0.0005975
inclination: 70.9984°
perigee height: 840 km
apogee height: 849 km
right ascension of ascending node: 98.4505°
argument of perigee: 328.4290°
revolutions per day: 14.14228807
mean anomaly at epoch: 31.6473°
orbit number at epoch: 79214

The dashed part of the orbit path shows where the satellite is in the earth's shadow,  

DLR